User: anonymous   Login
Location: Unspecified
(0.0000°N, 0.0000°E)
Time: 02:53:31
(UTC+00:00)
Language:

VELOX 1 - Orbit

View from above orbital plane
View from above orbital plane
View from above satellite
View from above satellite

Ground track
Ground track

The orbit data is extracted from the following two-line orbital elements,

1 40057U 14034E   18020.79680500  .00000250  00000-0  42823-4 0  9994
2 40057  98.1946 129.4172 0012505  82.7070 277.5562 14.77326008191887
Epoch (UTC): 20 January 2018 19:07:23
Eccentricity: 0.0012505
inclination: 98.1946°
perigee height: 629 km
apogee height: 646 km
right ascension of ascending node: 129.4172°
argument of perigee: 82.7070°
revolutions per day: 14.77326008
mean anomaly at epoch: 277.5562°
orbit number at epoch: 19188

The dashed part of the orbit path shows where the satellite is in the earth's shadow,  

DLR